[[{"header":{"parameterUnit":"m.s-1","parameterCategory":1,"la1":30.2991,"la2":30.254,"lo1":-89.0895,"lo2":-89.0444,"dy":0.0017,"dx":0.0017,"nx":28,"ny":28,"refTime":"2023-11-04T03:00:00:Z","depth":0,"parameterNumber":2,"parameterNumberName":"U-component_of_WINDS"},"data":[0,0,0,0,0,0,0,0,0,0,0,0,0,0,0,0,0,0,0,0,0,0,0,0,0,0,0,0,0,0,0,0,0,0,0,0,0,0,0,0,0,0,0,0,0,0,0,0,0,0,0,0,0,0,0,0,0,0,-0.6919,-0.692,0,-0.7027,-0.7028,-0.7029,-0.7046,-0.7045,-0.7044,-0.7043,-0.7153,-0.7157,-0.7161,0,0,0,0,0,0,0,0,0,0,0,0,0,-0.673,-0.6733,-0.6919,-0.692,-0.6922,-0.7026,-0.7028,-0.7029,-0.7046,-0.7045,-0.7044,-0.7043,-0.7152,-0.7157,-0.7161,0,0,0,0,0,0,0,0,0,0,0,0,0,-0.6822,-0.6734,-0.6919,-0.6943,-0.6946,-0.7026,-0.7028,-0.703,-0.7046,-0.7045,-0.7043,-0.7042,-0.7151,-0.7156,-0.7162,-0.7226,0,0,-0.7179,-0.7182,0,0,0,0,0,0,0,0,-0.6817,-0.6829,-0.6938,-0.6941,-0.6945,-0.7021,-0.7002,-0.7096,-0.7047,-0.7008,-0.7043,-0.7041,-0.7111,-0.712,-0.7143,-0.7231,-0.7236,-0.718,-0.7183,-0.7186,-0.7187,0,0,0,0,0,0,0,-0.681,-0.6825,-0.6962,-0.6939,-0.6944,-0.6949,-0.696,-0.702,-0.7066,-0.7011,-0.7013,-0.7025,-0.7112,-0.7137,-0.7146,-0.7237,-0.718,-0.7185,-0.7188,-0.7191,-0.7386,-0.7388,0,0,0,0,0,0,-0.68,-0.6819,-0.6958,-0.6965,-0.6876,-0.6953,-0.6966,-0.6998,-0.7065,-0.7074,-0.7026,-0.7026,-0.7128,-0.7139,-0.7149,-0.7231,-0.7186,-0.7191,-0.7194,-0.7384,-0.7387,-0.7388,0,0,0,0,0,0,-0.6795,-0.6812,-0.6954,-0.6893,-0.6911,-0.6958,-0.6994,-0.7001,-0.7026,-0.7077,-0.7085,-0.7043,-0.7127,-0.7141,-0.7207,-0.7235,-0.7194,-0.7199,-0.7382,-0.7385,-0.7388,-0.7392,0,0,0,0,0,0,-0.679,-0.681,-0.6835,-0.6893,-0.6914,-0.7009,-0.6996,-0.7004,-0.7036,-0.7036,-0.7095,-0.7103,-0.7127,-0.7199,-0.7213,-0.7242,-0.7203,-0.738,-0.7384,-0.7387,-0.739,-0.7395,-0.7399,0,0,0,0,0,-0.6783,-0.6831,-0.6836,-0.6852,-0.6946,-0.7011,-0.7023,-0.705,-0.7038,-0.7063,-0.7096,-0.7102,-0.7229,-0.7205,-0.7222,-0.7252,-0.7379,-0.7383,-0.7386,-0.7388,-0.7394,-0.7399,0,0,0,0,0,0,-0.6774,-0.6839,-0.6845,-0.6913,-0.6957,-0.7014,-0.7046,-0.7055,-0.7102,-0.71,-0.7131,-0.7145,-0.7209,-0.7237,-0.721,-0.7319,-0.7303,-0.731,-0.7298,-0.7304,-0.7309,-0.7301,-0.7208,0,0,0,0,0,-0.678,-0.6828,-0.6882,-0.6937,-0.6959,-0.6999,-0.7028,-0.7045,-0.7091,-0.711,-0.7147,-0.7192,-0.7242,-0.7275,-0.7324,-0.7394,-0.7408,-0.7423,-0.7428,-0.7431,-0.7437,-0.7478,-0.7486,-0.7401,-0.7401,-0.7401,0,0,-0.6793,-0.6835,-0.6863,-0.6936,-0.6972,-0.7021,-0.7014,-0.7066,-0.7103,-0.7117,-0.7182,-0.7212,-0.7264,-0.7333,-0.7365,-0.7358,-0.7464,-0.7436,-0.7438,-0.7443,-0.7483,-0.7491,-0.7498,-0.7404,-0.7404,-0.7403,0,0,-0.6842,-0.6878,-0.6928,-0.6964,-0.7019,-0.7045,-0.7057,-0.7114,-0.7134,-0.72,-0.7212,-0.7257,-0.7343,-0.738,-0.741,-0.7475,-0.7482,-0.749,-0.7514,-0.7553,-0.756,-0.7566,-0.7591,-0.7599,-0.7496,-0.7496,-0.7496,0,-0.6851,-0.6926,-0.6953,-0.7005,-0.7038,-0.7054,-0.7106,-0.714,-0.7207,-0.723,-0.7221,-0.7331,-0.7367,-0.7445,-0.7461,-0.7485,-0.7501,-0.7484,-0.7557,-0.7563,-0.7569,-0.7593,-0.7602,-0.7497,-0.7497,-0.7497,-0.7497,0,-0.6935,-0.6986,-0.7021,-0.7086,-0.7123,-0.7175,-0.7211,-0.7245,-0.7259,-0.7287,-0.7355,-0.7399,-0.7458,-0.7478,-0.7491,-0.7559,-0.7553,-0.755,-0.7535,-0.7578,-0.7601,-0.761,-0.7498,-0.7498,-0.7498,-0.7497,0,0,-0.698,-0.7062,-0.7074,-0.7105,-0.7166,-0.7207,-0.726,-0.7318,-0.7348,-0.7394,-0.744,-0.7513,-0.7512,-0.7546,-0.7564,-0.7599,-0.765,-0.7592,-0.7594,-0.7602,-0.7728,-0.773,-0.774,-0.7655,-0.7656,-0.7658,-0.7724,0,-0.7037,-0.7132,-0.716,-0.724,-0.7289,-0.7306,-0.7353,-0.7396,-0.7424,-0.747,-0.7501,-0.7552,-0.7546,-0.7567,-0.7602,-0.7636,-0.7675,-0.7631,-0.7699,-0.7701,-0.7686,-0.7752,-0.7754,-0.7814,-0.7733,-0.7734,-0.7736,0,-0.7116,-0.7165,-0.725,-0.7308,-0.7329,-0.737,-0.7427,-0.747,-0.7521,-0.7539,-0.7578,-0.7594,-0.7651,-0.7632,-0.7712,-0.7682,-0.7711,-0.7732,-0.7735,-0.7743,-0.7721,-0.7762,-0.7834,-0.7843,-0.775,-0.7749,-0.7748,0,-0.7142,-0.7229,-0.7292,-0.7317,-0.7385,-0.7414,-0.7444,-0.7493,-0.7527,-0.7576,-0.7599,-0.7654,-0.7685,-0.7728,-0.7759,-0.7742,-0.7837,-0.782,-0.7854,-0.7853,-0.7873,-0.7871,-0.7951,-0.7891,-0.7891,-0.7891,-0.789,0,-0.7203,-0.7255,-0.7305,-0.7343,-0.7403,-0.7434,-0.7492,-0.7522,-0.7566,-0.7612,-0.763,-0.7672,-0.771,-0.7758,-0.7783,-0.7846,-0.7859,-0.7876,-0.7882,-0.7875,-0.7873,-0.7895,-0.7892,-0.7893,-0.7892,-0.7892,-0.7892,0,-0.7241,-0.7277,-0.7347,-0.7406,-0.7422,-0.7464,-0.7515,-0.7554,-0.7583,-0.764,-0.7656,-0.7701,-0.7759,-0.7794,-0.7867,-0.7883,-0.7954,-0.7958,-0.7937,-0.794,-0.7972,-0.7968,-0.8069,-0.8084,-0.8013,-0.8013,-0.8014,0,-0.7278,-0.7319,-0.7383,-0.7415,-0.7445,-0.7496,-0.7531,-0.7565,-0.76,-0.7662,-0.7694,-0.7752,-0.7801,-0.7892,-0.7932,-0.7989,-0.7995,-0.8026,-0.8003,-0.7995,-0.7996,-0.7994,-0.7998,-0.803,-0.803,-0.8031,-0.8031,0,-0.734,-0.7356,-0.7406,-0.7462,-0.7504,-0.755,-0.7596,-0.7621,-0.7662,-0.7702,-0.7761,-0.7799,-0.7874,-0.7932,-0.7992,-0.8024,-0.8035,-0.8038,-0.8049,-0.8042,-0.8029,-0.8038,-0.7948,-0.8036,-0.8035,-0.8035,-0.8035,-0.8035,-0.7379,-0.7417,-0.7469,-0.7524,-0.7562,-0.7605,-0.7645,-0.768,-0.773,-0.7794,-0.781,-0.7873,-0.7924,-0.8006,-0.8039,-0.8088,-0.8084,-0.8099,-0.8103,-0.8107,-0.8108,-0.8021,-0.8099,-0.8099,-0.8099,-0.8099,-0.8099,0,-0.7443,-0.7477,-0.7528,-0.7592,-0.7636,-0.7643,-0.7695,-0.7731,-0.7786,-0.7833,-0.7881,-0.795,-0.8008,-0.8053,-0.8112,-0.8143,-0.815,-0.8158,-0.8156,-0.8163,-0.8108,-0.8093,-0.8151,-0.8151,-0.8151,-0.8151,-0.8151,-0.8151,-0.7481,-0.7546,-0.7568,-0.7652,-0.7686,-0.7748,-0.7777,-0.7817,-0.7855,-0.7931,-0.7979,-0.8009,-0.8055,-0.8118,-0.8172,-0.8183,-0.8205,-0.8212,-0.8225,-0.8173,-0.8167,-0.8161,-0.8148,-0.8216,-0.8216,-0.8276,-0.8276,-0.8276]},{"header":{"parameterUnit":"m.s-1","parameterCategory":1,"la1":30.2991,"la2":30.254,"lo1":-89.0895,"lo2":-89.0444,"dy":0.0017,"dx":0.0017,"nx":28,"ny":28,"refTime":"2023-11-04T03:00:00:Z","depth":0,"parameterNumber":3,"parameterNumberName":"V-component_of_WINDS"},"data":[0,0,0,0,0,0,0,0,0,0,0,0,0,0,0,0,0,0,0,0,0,0,0,0,0,0,0,0,0,0,0,0,0,0,0,0,0,0,0,0,0,0,0,0,0,0,0,0,0,0,0,0,0,0,0,0,0,0,-2.1351,-2.1352,0,-2.144,-2.1442,-2.1443,-2.1457,-2.1456,-2.1455,-2.1455,-2.1546,-2.1549,-2.1552,0,0,0,0,0,0,0,0,0,0,0,0,0,-2.1191,-2.1194,-2.135,-2.1352,-2.1353,-2.144,-2.1442,-2.1443,-2.1457,-2.1456,-2.1455,-2.1454,-2.1545,-2.1548,-2.1552,0,0,0,0,0,0,0,0,0,0,0,0,0,-2.1268,-2.1194,-2.135,-2.137,-2.1373,-2.144,-2.1442,-2.1443,-2.1457,-2.1456,-2.1455,-2.1454,-2.1544,-2.1548,-2.1553,-2.1605,0,0,-2.1567,-2.1569,0,0,0,0,0,0,0,0,-2.1264,-2.1274,-2.1366,-2.1369,-2.1372,-2.1436,-2.1419,-2.1498,-2.1458,-2.1425,-2.1455,-2.1453,-2.151,-2.1518,-2.1537,-2.161,-2.1614,-2.1568,-2.1571,-2.1573,-2.1574,0,0,0,0,0,0,0,-2.1258,-2.127,-2.1386,-2.1368,-2.1371,-2.1375,-2.1385,-2.1434,-2.1473,-2.1428,-2.1429,-2.144,-2.1512,-2.1532,-2.1539,-2.1615,-2.1568,-2.1572,-2.1575,-2.1577,-2.1736,-2.1737,0,0,0,0,0,0,-2.125,-2.1266,-2.1383,-2.1389,-2.1314,-2.1379,-2.139,-2.1417,-2.1473,-2.148,-2.1441,-2.144,-2.1525,-2.1534,-2.1543,-2.1608,-2.1573,-2.1577,-2.158,-2.1734,-2.1736,-2.1738,0,0,0,0,0,0,-2.1246,-2.126,-2.138,-2.1328,-2.1343,-2.1383,-2.1413,-2.1419,-2.144,-2.1482,-2.1489,-2.1455,-2.1524,-2.1536,-2.159,-2.1612,-2.1579,-2.1583,-2.1733,-2.1735,-2.1737,-2.174,0,0,0,0,0,0,-2.1241,-2.1259,-2.1279,-2.1328,-2.1346,-2.1426,-2.1415,-2.1422,-2.1448,-2.1449,-2.1497,-2.1504,-2.1524,-2.1583,-2.1595,-2.1617,-2.1587,-2.1731,-2.1734,-2.1736,-2.1738,-2.1742,-2.1745,0,0,0,0,0,-2.1236,-2.1276,-2.128,-2.1294,-2.1372,-2.1427,-2.1437,-2.146,-2.145,-2.1471,-2.1498,-2.1503,-2.1607,-2.1588,-2.1602,-2.1626,-2.173,-2.1733,-2.1736,-2.1736,-2.1741,-2.1745,0,0,0,0,0,0,-2.1228,-2.1283,-2.1288,-2.1345,-2.1381,-2.1429,-2.1456,-2.1464,-2.1503,-2.1501,-2.1527,-2.1538,-2.1591,-2.1614,-2.1592,-2.168,-2.1668,-2.1674,-2.1663,-2.1668,-2.1671,-2.1665,-2.1591,0,0,0,0,0,-2.1233,-2.1273,-2.1319,-2.1365,-2.1383,-2.1416,-2.1441,-2.1455,-2.1493,-2.1509,-2.154,-2.1576,-2.1618,-2.1644,-2.1684,-2.1741,-2.1752,-2.1765,-2.1768,-2.1771,-2.1776,-2.1808,-2.1814,-2.1748,-2.1748,-2.1748,0,0,-2.1244,-2.1279,-2.1302,-2.1364,-2.1394,-2.1435,-2.1429,-2.1472,-2.1502,-2.1515,-2.1568,-2.1592,-2.1635,-2.1691,-2.1717,-2.1712,-2.1796,-2.1775,-2.1777,-2.178,-2.1812,-2.1818,-2.1823,-2.175,-2.175,-2.1749,0,0,-2.1285,-2.1315,-2.1357,-2.1387,-2.1432,-2.1454,-2.1464,-2.1511,-2.1528,-2.1582,-2.1592,-2.1628,-2.1698,-2.1728,-2.1753,-2.1805,-2.1811,-2.1817,-2.1836,-2.1867,-2.1872,-2.1877,-2.1895,-2.1902,-2.1822,-2.1822,-2.1822,0,-2.1293,-2.1354,-2.1378,-2.1421,-2.1448,-2.1461,-2.1504,-2.1532,-2.1587,-2.1606,-2.1599,-2.1688,-2.1717,-2.1781,-2.1793,-2.1813,-2.1825,-2.1812,-2.1869,-2.1874,-2.1879,-2.1897,-2.1904,-2.1823,-2.1823,-2.1823,-2.1823,0,-2.1362,-2.1404,-2.1433,-2.1487,-2.1517,-2.156,-2.1589,-2.1617,-2.1629,-2.1651,-2.1706,-2.1742,-2.179,-2.1806,-2.1817,-2.1871,-2.1866,-2.1864,-2.1852,-2.1886,-2.1903,-2.191,-2.1823,-2.1823,-2.1823,-2.1823,0,0,-2.14,-2.1467,-2.1477,-2.1502,-2.1552,-2.1586,-2.1629,-2.1676,-2.1699,-2.1737,-2.1774,-2.1833,-2.1832,-2.186,-2.1875,-2.1902,-2.1941,-2.1897,-2.1898,-2.1904,-2.2002,-2.2003,-2.2011,-2.1945,-2.1947,-2.1948,-2.1999,0,-2.1447,-2.1525,-2.1547,-2.1613,-2.1652,-2.1666,-2.1703,-2.1739,-2.1761,-2.1798,-2.1822,-2.1864,-2.1859,-2.1876,-2.1903,-2.193,-2.1961,-2.1927,-2.198,-2.1981,-2.1969,-2.202,-2.2022,-2.2068,-2.2006,-2.2007,-2.2008,0,-2.1512,-2.1552,-2.1621,-2.1667,-2.1684,-2.1718,-2.1763,-2.1798,-2.1838,-2.1852,-2.1883,-2.1896,-2.1942,-2.1927,-2.199,-2.1966,-2.1989,-2.2005,-2.2008,-2.2014,-2.1996,-2.2027,-2.2083,-2.209,-2.2019,-2.2018,-2.2017,0,-2.1533,-2.1604,-2.1655,-2.1675,-2.173,-2.1753,-2.1777,-2.1816,-2.1843,-2.1882,-2.19,-2.1944,-2.1968,-2.2002,-2.2026,-2.2013,-2.2087,-2.2074,-2.21,-2.2099,-2.2115,-2.2113,-2.2175,-2.2129,-2.2129,-2.2129,-2.2129,0,-2.1583,-2.1625,-2.1665,-2.1696,-2.1744,-2.1769,-2.1815,-2.1839,-2.1874,-2.191,-2.1924,-2.1958,-2.1988,-2.2025,-2.2044,-2.2094,-2.2104,-2.2117,-2.2122,-2.2116,-2.2114,-2.2131,-2.2129,-2.2131,-2.213,-2.213,-2.213,0,-2.1615,-2.1644,-2.17,-2.1747,-2.176,-2.1793,-2.1833,-2.1864,-2.1887,-2.1932,-2.1944,-2.198,-2.2025,-2.2053,-2.2109,-2.2122,-2.2177,-2.218,-2.2163,-2.2165,-2.219,-2.2187,-2.2264,-2.2276,-2.2222,-2.2223,-2.2223,0,-2.1645,-2.1678,-2.1729,-2.1754,-2.1778,-2.1819,-2.1847,-2.1873,-2.1901,-2.1949,-2.1974,-2.202,-2.2058,-2.2129,-2.216,-2.2203,-2.2208,-2.2232,-2.2215,-2.2208,-2.2209,-2.2206,-2.221,-2.2235,-2.2235,-2.2236,-2.2236,0,-2.1696,-2.1708,-2.1748,-2.1792,-2.1825,-2.1861,-2.1897,-2.1917,-2.1949,-2.198,-2.2027,-2.2056,-2.2114,-2.216,-2.2206,-2.223,-2.2239,-2.2241,-2.225,-2.2244,-2.2233,-2.224,-2.2171,-2.2239,-2.2239,-2.2239,-2.2239,-2.2239,-2.1728,-2.1758,-2.1798,-2.1842,-2.1872,-2.1905,-2.1937,-2.1963,-2.2003,-2.2052,-2.2065,-2.2114,-2.2153,-2.2216,-2.2241,-2.2279,-2.2276,-2.2288,-2.2291,-2.2293,-2.2294,-2.2227,-2.2288,-2.2288,-2.2288,-2.2288,-2.2288,0,-2.178,-2.1806,-2.1846,-2.1896,-2.1931,-2.1936,-2.1976,-2.2004,-2.2047,-2.2083,-2.212,-2.2173,-2.2217,-2.2252,-2.2297,-2.2321,-2.2326,-2.2332,-2.233,-2.2336,-2.2295,-2.2283,-2.2327,-2.2327,-2.2327,-2.2327,-2.2327,-2.2327,-2.181,-2.1861,-2.1878,-2.1944,-2.197,-2.2018,-2.2041,-2.2072,-2.21,-2.2159,-2.2196,-2.2218,-2.2254,-2.2302,-2.2342,-2.2351,-2.2367,-2.2373,-2.2382,-2.2343,-2.2339,-2.2335,-2.2324,-2.2376,-2.2376,-2.2421,-2.2421,-2.2422]}]]